Powrót do katalogu

STARLINK-35038

AktywnyŁącznośćVLEO
NORAD 65482·PAYLOAD·🇺🇸 United States

Wystrzelony Sep 3, 2025 z Cape Canaveral Space Force Station

Loading…

Następne Przeloty (najbliższe 24 godziny)

TLE

ŚwieżeSource: CelesTrak SupGP

Epoka: Sep 14, 2026, 22:57 UTC

1 65482C 25195AA  26257.95673611  .00012439  00000+0  36760-3 0  2577
2 65482  53.1584  95.3145 0001315  85.6883 276.2342 15.34376984    15

Śledź STARLINK-35038 w czasie rzeczywistym z AllMySat

Download on the App Store